Lid_Strength_Index
3 3 2 2 2 2 2 1 1 1 0 1 1 1 1 1 1 1 1 1 1 2
3 3 2 2 2 2 1 1 1 1 1 2 2 1 1 1 1 1 1 1 1 2
2 2 2 3 2 3 2 1 1 1 1 1 1 1 1 1 1 2 1 1 2 1
2 2 2 2 1 1 1 2 1 1 1 1 1 1 1 1 1 2 2 1 2 2
2 2 3 3 2 1 1 1 1 1 1 1 1 1 1 2 1 2 2 2 2 2
3 3 3 2 2 1 1 1 2 1 1 1 2 1 1 1 1 1 2 2 2 2
4 4 3 3 2 2 1 1 1 1 1 1 1 1 1 1 2 1 1 1 1 2
4 4 4 4 4 3 1 1 1 1 1 1 1 1 1 2 2 2 2 1 1 1
4 3 4 4 4 4 3 2 2 1 1 2 1 4 6 5 2 2 2 2 2 1
3 3 3 3 3 3 3 2 2 2 2 2 2 5 6 5 3 3 2 2 2 3
3 3 3 3 3 3 3 3 2 2 2 2 2 5 6 5 3 2 2 2 2 2
4 4 4 4 3 3 4 3 3 2 3 2 2 5 7 7 3 2 2 2 2 2
4 4 4 4 4 3 3 3 2 2 2 3 2 5 9 8 3 3 2 3 3 8
3 3 3 3 3 3 4 3 3 2 2 2 2 2 6 8 3 2 3 4 3 3